This is the latest recevied weather packets stored in our database for station/object KB1JLI. If no packets are shown the sender has not sent any weather packets the latest 10 day(s).
| Time | Temp. | Humidity | Pressure | Rain* | Wind** | Luminosity | Snow |
|---|---|---|---|---|---|---|---|
| 1777401558 | 14.44° C | 38% | 1022.5 hPa | 0 mm | - | 604 W/m² | - |
| 1777401254 | 13.89° C | 39% | 1022.6 hPa | 0 mm | - | 610 W/m² | - |
| 1777400950 | 14.44° C | 35% | 1022.9 hPa | 0 mm | - | 619 W/m² | - |
| 1777400646 | 14.44° C | 39% | 1022.9 hPa | 0 mm | - | 626 W/m² | - |
| 1777400345 | 15° C | 40% | 1022.9 hPa | 0 mm | - | 632 W/m² | - |
| 1777400039 | 14.44° C | 42% | 1022.9 hPa | 0 mm | - | 640 W/m² | - |
| 1777399737 | 13.89° C | 42% | 1022.9 hPa | 0 mm | - | 646 W/m² | - |
| 1777399433 | 14.44° C | 43% | 1022.8 hPa | 0 mm | - | 649 W/m² | - |
| 1777399131 | 14.44° C | 47% | 1022.8 hPa | 0 mm | - | 657 W/m² | - |
| 1777398828 | 14.44° C | 49% | 1023 hPa | 0 mm | - | 660 W/m² | - |
| 1777398525 | 14.44° C | 49% | 1022.8 hPa | 0 mm | - | 667 W/m² | - |
| 1777398222 | 13.89° C | 53% | 1022.8 hPa | 0 mm | - | 671 W/m² | - |
| 1777397919 | 13.89° C | 55% | 1022.8 hPa | 0 mm | - | 673 W/m² | - |
| 1777397615 | 14.44° C | 53% | 1022.8 hPa | 0 mm | - | 675 W/m² | - |
| 1777397310 | 14.44° C | 53% | 1023 hPa | 0 mm | - | 681 W/m² | - |
| 1777397007 | 13.89° C | 57% | 1022.9 hPa | 0 mm | - | 690 W/m² | - |
| 1777396703 | 13.89° C | 54% | 1023.1 hPa | 0 mm | - | 692 W/m² | - |
| 1777396400 | 13.89° C | 55% | 1023.1 hPa | 0 mm | - | 690 W/m² | - |
| 1777396097 | 14.44° C | 56% | 1022.9 hPa | 0 mm | - | 695 W/m² | - |
| 1777395793 | 14.44° C | 54% | 1023 hPa | 0 mm | - | 696 W/m² | - |
| 1777395489 | 14.44° C | 56% | 1023.1 hPa | 0 mm | - | 699 W/m² | - |
| 1777395185 | 13.89° C | 57% | 1022.7 hPa | 0 mm | - | 701 W/m² | - |
| 1777394883 | 14.44° C | 56% | 1022.9 hPa | 0 mm | - | 701 W/m² | - |
| 1777394578 | 14.44° C | 56% | 1022.8 hPa | 0 mm | - | 703 W/m² | - |
| 1777394275 | 13.89° C | 58% | 1022.8 hPa | 0 mm | - | 702 W/m² | - |
* Rain latest hour (hover to see other rain measurements)
** Current wind speed in m/s (hover to see current wind gust speed)